| time (UTC) | temp F | wind direction | speed MPH | gust MPH | rain 1hr in | rain 24hr in | rain mn in | humidity % | barometer mb |
| 20260504201502 | 73 | 261 | 0.0 | 3.0 | 0.00 | 0.00 | 0.00 | 54 | 1008.8 |
| 20260504200058 | 72 | 261 | 0.0 | 3.0 | 0.00 | 0.00 | 0.00 | 56 | 1008.9 |
| 20260504194557 | 70 | 249 | 0.0 | 2.0 | 0.00 | 0.00 | 0.00 | 61 | 1009.3 |
| 20260504193100 | 69 | 249 | 0.0 | 2.0 | 0.00 | 0.00 | 0.00 | 62 | 1009.8 |
| 20260504191607 | 68 | 259 | 0.0 | 3.0 | 0.00 | 0.00 | 0.00 | 62 | 1010.1 |
| 20260504190104 | 68 | 261 | 0.0 | 3.0 | 0.00 | 0.00 | 0.00 | 60 | 1010.5 |
| 20260504184552 | 69 | 263 | 1.0 | 3.0 | 0.00 | 0.00 | 0.00 | 58 | 1010.4 |
| 20260504183046 | 69 | 260 | 1.0 | 5.0 | 0.00 | 0.00 | 0.00 | 57 | 1010.2 |
| 20260504181547 | 69 | 267 | 1.0 | 4.0 | 0.00 | 0.00 | 0.00 | 59 | 1009.8 |
| 20260504180042 | 69 | 275 | 0.0 | 5.0 | 0.00 | 0.00 | 0.00 | 58 | 1009.6 |
| 20260504174543 | 67 | 261 | 1.0 | 2.0 | 0.00 | 0.00 | 0.00 | 64 | 1009.5 |
| 20260504173036 | 67 | 252 | 0.0 | 2.0 | 0.00 | 0.00 | 0.00 | 64 | 1009.8 |
| 20260504171536 | 66 | 251 | 1.0 | 4.0 | 0.00 | 0.00 | 0.00 | 63 | 1009.5 |
| 20260504081556 | 51 | 261 | 0.0 | 2.0 | 0.00 | 0.00 | 0.00 | 63 | 1012.6 |
| 20260504044534 | 49 | 117 | 0.0 | 0.0 | 0.00 | 0.00 | 0.00 | 68 | 1014.6 |
| 20260504043032 | 50 | 172 | 0.0 | 0.0 | 0.00 | 0.00 | 0.00 | 65 | 1014.6 |
| 20260504041533 | 50 | 110 | 0.0 | 0.0 | 0.00 | 0.00 | 0.00 | 65 | 1014.7 |
| 20260504040026 | 51 | 196 | 0.0 | 0.0 | 0.00 | 0.00 | 0.00 | 64 | 1014.9 |
| 20260504034526 | 52 | 196 | 0.0 | 0.0 | 0.00 | 0.00 | 0.00 | 63 | 1015.1 |
| 20260504033027 | 53 | 196 | 0.0 | 0.0 | 0.00 | 0.00 | 0.00 | 59 | 1015.2 |
| 20260504031525 | 54 | 196 | 0.0 | 0.0 | 0.00 | 0.00 | 0.00 | 60 | 1015.2 |
| 20260504030024 | 55 | 250 | 0.0 | 0.0 | 0.00 | 0.00 | 0.00 | 57 | 1015.4 |
| 20260504024524 | 56 | 250 | 0.0 | 0.0 | 0.00 | 0.00 | 0.00 | 52 | 1015.5 |
| 20260504023024 | 56 | 250 | 0.0 | 0.0 | 0.00 | 0.00 | 0.00 | 52 | 1015.5 |
| 20260504021522 | 56 | 250 | 0.0 | 0.0 | 0.00 | 0.00 | 0.00 | 51 | 1015.4 |
| 20260504020022 | 57 | 254 | 0.0 | 2.0 | 0.00 | 0.00 | 0.00 | 49 | 1015.4 |
| 20260504014527 | 57 | 254 | 1.0 | 2.0 | 0.00 | 0.00 | 0.00 | 47 | 1015.3 |
| 20260504013021 | 57 | 237 | 0.0 | 2.0 | 0.00 | 0.00 | 0.00 | 45 | 1015.0 |
| 20260504011521 | 57 | 253 | 0.0 | 0.0 | 0.00 | 0.00 | 0.00 | 45 | 1015.1 |
| 20260504010019 | 57 | 242 | 0.0 | 0.0 | 0.00 | 0.00 | 0.00 | 44 | 1015.1 |
| 20260504004522 | 57 | 259 | 0.0 | 0.0 | 0.00 | 0.00 | 0.00 | 44 | 1015.2 |
| 20260504003019 | 58 | 259 | 0.0 | 0.0 | 0.00 | 0.00 | 0.00 | 42 | 1015.0 |
| 20260504001519 | 58 | 303 | 0.0 | 2.0 | 0.00 | 0.00 | 0.00 | 43 | 1014.8 |
| 20260504000017 | 58 | 246 | 0.0 | 0.0 | 0.00 | 0.00 | 0.00 | 43 | 1014.7 |
| 20260503234517 | 58 | 237 | 0.0 | 2.0 | 0.00 | 0.00 | 0.00 | 43 | 1014.7 |
| 20260503233018 | 59 | 252 | 0.0 | 1.0 | 0.00 | 0.00 | 0.00 | 45 | 1015.0 |
| 20260503231512 | 59 | 252 | 0.0 | 2.0 | 0.00 | 0.00 | 0.00 | 42 | 1015.4 |
| 20260503230009 | 59 | 257 | 0.0 | 2.0 | 0.00 | 0.00 | 0.00 | 40 | 1015.9 |
| 20260503224508 | 59 | 254 | 0.0 | 2.0 | 0.00 | 0.00 | 0.00 | 42 | 1016.0 |
| 20260503223006 | 60 | 254 | 0.0 | 3.0 | 0.00 | 0.00 | 0.00 | 39 | 1016.3 |
| 20260503221505 | 60 | 248 | 0.0 | 4.0 | 0.00 | 0.00 | 0.00 | 44 | 1016.3 |
| 20260503220004 | 59 | 244 | 1.0 | 2.0 | 0.00 | 0.00 | 0.00 | 41 | 1016.5 |
| 20260503214507 | 59 | 246 | 0.0 | 0.0 | 0.00 | 0.00 | 0.00 | 45 | 1016.4 |
| 20260503213004 | 59 | 249 | 0.0 | 2.0 | 0.00 | 0.00 | 0.00 | 41 | 1016.4 |
| 20260503211500 | 59 | 245 | 0.0 | 2.0 | 0.00 | 0.00 | 0.00 | 45 | 1017.0 |
| 20260503204559 | 60 | 254 | 0.0 | 2.0 | 0.00 | 0.00 | 0.00 | 40 | 1017.6 |
| 20260503203059 | 60 | 235 | 0.0 | 2.0 | 0.00 | 0.00 | 0.00 | 39 | 1017.3 |